Weather History for Ellsworth AFB, SD

Change the Weather History Date:

Monday, March 24, 2014

  Actual Average Record
Temperature  
Mean Temperature 26 °F -  
Max Temperature 32 °F 47 °F 69 °F (1998)
Min Temperature 19 °F 26 °F 8 °F (2013)
Degree Days  
Heating Degree Days 40    
Moisture  
Dew Point 19 °F    
Average Humidity 74    
Maximum Humidity 93    
Minimum Humidity 53    
Precipitation  
Precipitation 0.00 in - - ()
Sea Level Pressure  
Sea Level Pressure 30.31 in    
Wind  
Wind Speed 13 mph (North)    
Max Wind Speed 28 mph    
Max Gust Speed 36 mph    
Visibility 8 miles    
Events Snow    
Averages and records for this station are not official NWS values.
T = Trace of Precipitation, MM = Missing Value Source: NWS Daily Summary

Daily Weather History Graph

Daily Weather History Graph

Search for Another Location

Airport:

Trip Planner

Search our weather history database for the weather conditions in past years. The results will help you decide how hot, cold, wet, or windy it might be!

Date:

Astronomy

Mar. 24, 2014 Rise Set
Actual Time 6:48 AM MDT 7:09 PM MDT
Civil Twilight 6:19 AM MDT 7:38 PM MDT
Nautical Twilight 5:45 AM MDT 8:12 PM MDT
Astronomical Twilight 5:10 AM MDT 8:48 PM MDT
Moon 2:32 AM MDT (3/24) 12:26 PM MDT (3/24)
Length of Visible Light 13h 19m
Length of Day
12h 21m
Last Quarter, 42% of the Moon is Illuminated
Mar 24
Last Quarter
Mar 30
New
Apr 7
First Quarter
Apr 15
Full
Apr 22
Last Quarter

Hourly Weather History & Observations

Time (MDT) Temp. Windchill Dew Point Humidity Pressure Visibility Wind Dir Wind Speed Gust Speed Precip Events Conditions
12:06 AM 26.6 °F 19.1 °F 23.0 °F 86% 30.20 in 10.0 mi NW 6.9 mph - N/A   Overcast
12:22 AM 26.6 °F 19.1 °F 23.0 °F 86% 30.21 in 10.0 mi North 6.9 mph - N/A   Overcast
12:27 AM 26.6 °F 19.1 °F 23.0 °F 86% 30.21 in 6.0 mi NNW 6.9 mph - N/A Snow Light Snow
1:00 AM 26.6 °F 15.7 °F 24.8 °F 93% 30.20 in 6.0 mi North 12.7 mph - N/A Snow Light Snow
1:59 AM 26.2 °F 16.4 °F 21.6 °F 82% 30.31 in 6.0 mi North 10.4 mph - 0.00 in Snow Light Snow
2:57 AM 25.5 °F 14.9 °F 21.0 °F 83% 30.32 in 6.0 mi North 11.5 mph - 0.00 in Snow Light Snow
3:58 AM 25.3 °F 14.1 °F 21.7 °F 86% 30.33 in 6.0 mi North 12.7 mph - 0.00 in Snow Light Snow
5:01 AM 24.8 °F 14.6 °F 21.2 °F 86% 30.23 in 6.0 mi North 10.4 mph - N/A Snow Light Snow
5:58 AM 25.0 °F 14.8 °F 19.9 °F 81% 30.36 in 10.0 mi North 10.4 mph - 0.00 in   Overcast
6:18 AM 24.8 °F 14.0 °F 19.4 °F 80% 30.25 in 6.0 mi North 11.5 mph - N/A Snow Light Snow
6:58 AM 24.8 °F 15.3 °F 21.2 °F 86% 30.40 in 6.0 mi NNE 9.2 mph - 0.00 in Snow Light Snow
7:12 AM 24.8 °F 15.3 °F 21.2 °F 86% 30.27 in 6.0 mi North 9.2 mph - N/A Snow Light Snow
7:22 AM 24.8 °F 15.3 °F 21.2 °F 86% 30.28 in 4.0 mi NNE 9.2 mph - N/A Snow Light Snow
7:37 AM 23.0 °F 11.7 °F 19.4 °F 86% 30.28 in 2.0 mi NNE 11.5 mph - N/A Snow Light Snow
7:42 AM 23.0 °F 13.1 °F 19.4 °F 86% 30.28 in 1.0 mi NE 9.2 mph - N/A Snow Light Snow
7:57 AM 22.6 °F 12.6 °F 19.8 °F 89% 30.41 in 1.0 mi NNE 9.2 mph - 0.00 in Snow Light Snow
8:14 AM 23.0 °F 11.7 °F 19.4 °F 86% 30.29 in 2.0 mi NNE 11.5 mph - N/A Snow Light Snow
8:41 AM 23.0 °F 13.9 °F 19.4 °F 86% 30.29 in 3.0 mi NNE 8.1 mph - N/A Snow Light Snow
8:57 AM 23.0 °F 13.9 °F 19.4 °F 86% 30.43 in 4.0 mi NNE 8.1 mph - 0.00 in Snow Light Snow
9:01 AM 23.0 °F 13.9 °F 19.4 °F 86% 30.29 in 2.0 mi NNE 8.1 mph - N/A Snow Light Snow
9:07 AM 23.0 °F 14.7 °F 19.4 °F 86% 30.30 in 5.0 mi North 6.9 mph - N/A Snow Light Snow
9:12 AM 23.0 °F 14.7 °F 19.4 °F 86% 30.30 in 5.0 mi NNE 6.9 mph - N/A Snow Light Snow
9:22 AM 23.0 °F 14.7 °F 19.4 °F 86% 30.30 in 3.0 mi NNE 6.9 mph - N/A Snow Light Snow
9:35 AM 23.0 °F 14.7 °F 19.4 °F 86% 30.30 in 7.0 mi North 6.9 mph - N/A Snow Light Snow
9:40 AM 23.0 °F 14.7 °F 19.4 °F 86% 30.30 in 2.0 mi North 6.9 mph - N/A Snow Light Snow
9:46 AM 23.0 °F 15.8 °F 19.4 °F 86% 30.30 in 8.0 mi North 5.8 mph - N/A Snow Light Snow
9:51 AM 23.0 °F 13.1 °F 19.4 °F 86% 30.30 in 6.0 mi North 9.2 mph - N/A Snow Light Snow
9:58 AM 23.9 °F 15.0 °F 20.1 °F 85% 30.44 in 2.0 mi North 8.1 mph - 0.00 in Snow Light Snow
10:03 AM 23.0 °F 13.9 °F 19.4 °F 86% 30.30 in 6.0 mi North 8.1 mph - N/A Snow Light Snow
10:08 AM 24.8 °F 15.3 °F 21.2 °F 86% 30.30 in 6.0 mi North 9.2 mph - N/A Snow Light Snow
10:18 AM 24.8 °F 14.6 °F 21.2 °F 86% 30.30 in 3.0 mi North 10.4 mph - N/A Snow Light Snow
10:23 AM 24.8 °F 14.6 °F 21.2 °F 86% 30.30 in 2.0 mi NNE 10.4 mph - N/A Snow Light Snow
10:28 AM 24.8 °F 14.6 °F 21.2 °F 86% 30.30 in 5.0 mi North 10.4 mph - N/A Snow Light Snow
10:53 AM 24.8 °F 13.4 °F 21.2 °F 86% 30.29 in 6.0 mi North 12.7 mph - N/A Snow Light Snow
10:58 AM 25.0 °F 12.2 °F 20.7 °F 84% 30.43 in 6.0 mi North 16.1 mph - 0.00 in Snow Light Snow
11:03 AM 24.8 °F 11.5 °F 19.4 °F 80% 30.29 in 9.0 mi North 17.3 mph - N/A Snow Light Snow
11:10 AM 26.6 °F 13.1 °F 17.6 °F 69% 30.29 in 10.0 mi North 19.6 mph - N/A Snow Light Snow
11:15 AM 26.6 °F 13.1 °F 17.6 °F 69% 30.29 in 10.0 mi North 19.6 mph - N/A   Overcast
11:16 AM 26.6 °F 13.1 °F 17.6 °F 69% 30.29 in 10.0 mi North 19.6 mph - N/A   Overcast
11:21 AM 26.6 °F 13.4 °F 19.4 °F 74% 30.29 in 10.0 mi North 18.4 mph 25.3 mph N/A   Overcast
11:26 AM 26.6 °F 13.1 °F 19.4 °F 74% 30.28 in 10.0 mi North 19.6 mph 27.6 mph N/A   Overcast
11:31 AM 26.6 °F 13.4 °F 19.4 °F 74% 30.28 in 10.0 mi North 18.4 mph 27.6 mph N/A   Overcast
11:41 AM 28.4 °F 15.1 °F 19.4 °F 69% 30.28 in 10.0 mi North 20.7 mph 25.3 mph N/A   Scattered Clouds
11:58 AM 28.2 °F 15.5 °F 19.9 °F 71% 30.40 in 10.0 mi North 18.4 mph 24.2 mph 0.00 in   Partly Cloudy
12:53 PM 32.0 °F 19.2 °F 21.2 °F 64% 30.26 in 10.0 mi NNW 23.0 mph 28.8 mph N/A   Mostly Cloudy
12:58 PM 31.5 °F 18.5 °F 20.5 °F 64% 30.38 in 10.0 mi NNW 23.0 mph 28.8 mph N/A   Mostly Cloudy
1:08 PM 32.0 °F 19.2 °F 19.4 °F 60% 30.26 in 10.0 mi NNW 23.0 mph 29.9 mph N/A   Mostly Cloudy
1:13 PM 32.0 °F 19.5 °F 21.2 °F 64% 30.25 in 10.0 mi NNW 21.9 mph 32.2 mph N/A   Mostly Cloudy
1:18 PM 32.0 °F 18.9 °F 19.4 °F 60% 30.25 in 10.0 mi NNW 24.2 mph 32.2 mph N/A   Overcast
1:59 PM 32.2 °F 18.9 °F 16.7 °F 53% 30.35 in 10.0 mi North 25.3 mph 32.2 mph N/A   Overcast
2:58 PM 31.3 °F 17.7 °F 17.2 °F 56% 30.35 in 10.0 mi North 25.3 mph 33.4 mph N/A   Mostly Cloudy
3:16 PM 32.0 °F 18.1 °F 19.4 °F 60% 30.23 in 10.0 mi North 27.6 mph 33.4 mph N/A   Partly Cloudy
3:37 PM 32.0 °F 18.1 °F 17.6 °F 55% 30.23 in 10.0 mi NNW 27.6 mph 34.5 mph N/A   Partly Cloudy
3:59 PM 31.5 °F 18.5 °F 18.0 °F 57% 30.36 in 10.0 mi North 23.0 mph 35.7 mph 0.00 in   Scattered Clouds
4:24 PM 32.0 °F 18.4 °F 17.6 °F 55% 30.24 in 10.0 mi North 26.5 mph 32.2 mph N/A   Mostly Cloudy
4:29 PM 30.2 °F 15.9 °F 17.6 °F 60% 30.24 in 10.0 mi NNW 26.5 mph 32.2 mph N/A   Mostly Cloudy
4:44 PM 32.0 °F 19.2 °F 17.6 °F 55% 30.24 in 10.0 mi NNW 23.0 mph 32.2 mph N/A   Mostly Cloudy
4:45 PM 32.0 °F 18.6 °F 17.6 °F 55% 30.24 in 10.0 mi NNW 25.3 mph 29.9 mph N/A   Mostly Cloudy
4:56 PM 32.0 °F 19.2 °F 17.6 °F 55% 30.24 in 10.0 mi NNW 23.0 mph 31.1 mph N/A   Mostly Cloudy
4:58 PM 32.0 °F 19.2 °F 17.6 °F 55% 30.36 in 10.0 mi NNW 23.0 mph 31.1 mph 0.00 in   Overcast
5:43 PM 30.2 °F 15.7 °F 15.8 °F 55% 30.24 in 10.0 mi NNW 27.6 mph - N/A   Mostly Cloudy
5:48 PM 30.2 °F 17.4 °F 15.8 °F 55% 30.24 in 10.0 mi NNW 20.7 mph 31.1 mph N/A   Mostly Cloudy
5:58 PM 30.2 °F 16.2 °F 15.8 °F 55% 30.36 in 10.0 mi NNW 25.3 mph 32.2 mph 0.00 in   Overcast
6:03 PM 28.4 °F 14.7 °F 15.8 °F 59% 30.24 in 10.0 mi NNW 21.9 mph 32.2 mph N/A   Mostly Cloudy
6:58 PM 27.7 °F 12.8 °F 14.5 °F 58% 30.38 in 10.0 mi NNW 25.3 mph 29.9 mph N/A   Clear
7:58 PM 26.2 °F 13.0 °F 12.6 °F 56% 30.41 in 10.0 mi North 18.4 mph - N/A   Partly Cloudy
8:58 PM 22.5 °F 9.4 °F 9.9 °F 59% 30.45 in 10.0 mi North 15.0 mph - N/A   Mostly Cloudy
9:58 PM 21.0 °F 9.9 °F 9.9 °F 62% 30.46 in 10.0 mi North 10.4 mph - N/A   Clear
10:58 PM 19.0 °F 13.9 °F 10.9 °F 71% 30.47 in 10.0 mi NW 3.5 mph - N/A   Clear
11:58 PM 20.5 °F 6.4 °F 11.5 °F 68% 30.46 in 10.0 mi NNW 16.1 mph - N/A   Clear